FW1757 Weather Reports


time (UTC)temp
C
wind
direction
speed
KPH
gust
KPH
rain 1hr
cm
rain 24hr
cm
rain mn
cm
humidity
%
barometer
mb
20260510232549 20 286 0.0 0.0 0.00 0.00 0.00 47 1015.8
20260510232046 20 275 0.0 0.0 0.00 0.00 0.00 46 1015.8
20260510231546 20 288 0.0 0.0 0.00 0.00 0.00 47 1015.8
20260510231045 20 300 0.0 0.0 0.00 0.00 0.00 50 1015.8
20260510230548 20 335 0.0 0.0 0.00 0.00 0.00 51 1015.7
20260510230048 20 325 0.0 0.0 0.00 0.00 0.00 49 1015.7
20260510225546 19 289 0.0 0.0 0.00 0.00 0.00 50 1015.7
20260510225044 19 300 0.0 0.0 0.00 0.00 0.00 51 1015.5
20260510224544 19 285 0.0 0.0 0.00 0.00 0.00 51 1015.4
20260510224043 19 261 0.0 0.0 0.00 0.00 0.00 52 1015.3
20260510223543 19 302 0.0 0.0 0.00 0.00 0.00 52 1015.5
20260510223043 19 305 0.0 0.0 0.00 0.00 0.00 51 1015.5
20260510222543 20 292 0.0 0.0 0.00 0.00 0.00 53 1015.6
20260510222045 20 280 0.0 0.0 0.00 0.00 0.00 53 1015.5
20260510221550 19 267 0.0 0.0 0.00 0.00 0.00 54 1015.4
20260510221043 19 313 0.0 0.0 0.00 0.00 0.00 53 1015.6
20260510220544 19 304 0.0 0.0 0.00 0.00 0.00 54 1015.7
20260510220042 19 240 0.0 0.0 0.00 0.00 0.00 55 1015.6
20260510215541 19 296 0.0 0.0 0.00 0.00 0.00 55 1015.6
20260510215044 19 298 0.0 0.0 0.00 0.00 0.00 56 1015.5
20260510214544 19 292 0.0 0.0 0.00 0.00 0.00 54 1015.5
20260510214041 19 298 0.0 0.0 0.00 0.00 0.00 55 1015.6
20260510213541 19 333 0.0 0.0 0.00 0.00 0.00 54 1015.5
20260510213041 18 300 0.0 0.0 0.00 0.00 0.00 55 1015.5
20260510212540 18 297 0.0 0.0 0.00 0.00 0.00 55 1015.5
20260510212041 18 277 0.0 0.0 0.00 0.00 0.00 56 1015.5
20260510211541 18 289 0.0 0.0 0.00 0.00 0.00 57 1015.5
20260510211040 18 279 0.0 0.0 0.00 0.00 0.00 59 1015.6
20260510210539 18 267 0.0 0.0 0.00 0.00 0.00 59 1015.6
20260510210040 17 344 0.0 0.0 0.00 0.00 0.00 61 1015.3
20260510205541 17 346 0.0 0.0 0.00 0.00 0.00 61 1015.4
20260510205041 17 319 0.0 0.0 0.00 0.00 0.00 58 1015.4
20260510204540 17 270 0.0 0.0 0.00 0.00 0.00 58 1015.3
20260510204041 18 289 0.0 0.0 0.00 0.00 0.00 57 1015.1
20260510203536 18 290 0.0 0.0 0.00 0.00 0.00 57 1015.2
20260510203036 18 298 0.0 0.0 0.00 0.00 0.00 57 1015.1
20260510202535 19 277 0.0 0.0 0.00 0.00 0.00 55 1015.0
20260510202035 20 321 0.0 0.0 0.00 0.00 0.00 55 1014.8
20260510201538 20 275 0.0 0.0 0.00 0.00 0.00 55 1014.7
20260510201036 20 302 0.0 0.0 0.00 0.00 0.00 55 1014.7
20260510200536 20 304 0.0 0.0 0.00 0.00 0.00 56 1015.0
20260510200105 19 295 0.0 0.0 0.00 0.00 0.00 58 1014.8
20260510195532 19 315 0.0 0.0 0.00 0.00 0.00 61 1015.1
20260510195031 18 292 0.0 0.0 0.00 0.00 0.00 63 1015.0
20260510194529 18 304 0.0 0.0 0.00 0.00 0.00 62 1014.9
20260510194030 18 342 0.0 0.0 0.00 0.00 0.00 64 1015.0
20260510193528 17 300 0.0 0.0 0.00 0.00 0.00 65 1015.0
20260510193038 17 288 0.0 0.0 0.00 0.00 0.00 66 1014.9
20260510192524 17 303 0.0 0.0 0.00 0.00 0.00 66 1015.0
20260510192024 17 310 0.0 0.0 0.00 0.00 0.00 67 1014.9
20260510191522 16 321 0.0 0.0 0.00 0.00 0.00 67 1014.9
20260510191020 16 296 0.0 0.0 0.00 0.00 0.00 67 1015.0
20260510190520 16 302 0.0 0.0 0.00 0.00 0.00 67 1014.9
20260510190025 16 346 0.0 0.0 0.00 0.00 0.00 67 1015.0
20260510185521 16 315 0.0 0.0 0.00 0.00 0.00 67 1015.0
20260510185020 16 321 0.0 0.0 0.00 0.00 0.00 67 1015.0
20260510184518 16 275 0.0 0.0 0.00 0.00 0.00 67 1015.0
20260510184019 16 291 0.0 0.0 0.00 0.00 0.00 67 1015.0
20260510183519 16 284 0.0 0.0 0.00 0.00 0.00 67 1015.0
20260510183038 16 286 0.0 0.0 0.00 0.00 0.00 67 1014.9
20260510182517 16 298 0.0 0.0 0.00 0.00 0.00 66 1015.0
20260510182021 16 294 0.0 0.0 0.00 0.00 0.00 66 1014.9
20260510181525 16 292 0.0 0.0 0.00 0.00 0.00 66 1014.9
20260510181115 15 281 0.0 0.0 0.00 0.00 0.00 63 1015.1
20260510180514 15 250 0.0 0.0 0.00 0.00 0.00 65 1015.0
20260510180013 15 315 0.0 0.0 0.00 0.00 0.00 65 1014.9
20260510175512 15 329 0.0 0.0 0.00 0.00 0.00 64 1014.9
20260510175012 15 309 0.0 0.0 0.00 0.00 0.00 64 1014.8
20260510174511 15 271 0.0 0.0 0.00 0.00 0.00 64 1014.9
20260510174014 15 281 0.0 0.0 0.00 0.00 0.00 61 1014.9
20260510173510 15 294 0.0 0.0 0.00 0.00 0.00 62 1014.9
20260510173009 15 288 0.0 0.0 0.00 0.00 0.00 63 1014.9
20260510172508 15 294 0.0 0.0 0.00 0.00 0.00 63 1015.0
20260510172012 15 292 0.0 0.0 0.00 0.00 0.00 62 1014.9
20260510171509 15 276 0.0 0.0 0.00 0.00 0.00 60 1015.0
20260510171006 15 287 0.0 0.0 0.00 0.00 0.00 60 1014.8
20260510170506 14 300 0.0 0.0 0.00 0.00 0.00 59 1014.8
20260510170005 14 275 0.0 0.0 0.00 0.00 0.00 60 1014.8
20260510165504 14 258 0.0 0.0 0.00 0.00 0.00 58 1015.0
20260510165004 14 268 0.0 0.0 0.00 0.00 0.00 55 1014.9
20260510164509 14 273 0.0 0.0 0.00 0.00 0.00 57 1014.8
20260510164002 14 256 0.0 0.0 0.00 0.00 0.00 55 1015.1
20260510163501 14 263 0.0 0.0 0.00 0.00 0.00 55 1015.0
20260510163003 14 279 0.0 0.0 0.00 0.00 0.00 55 1014.9
20260510162559 13 298 0.0 0.0 0.00 0.00 0.00 52 1014.9
20260510162058 13 305 0.0 0.0 0.00 0.00 0.00 46 1014.9
20260510161558 13 282 0.0 0.0 0.00 0.00 0.00 49 1014.9
20260510161059 13 288 0.0 0.0 0.00 0.00 0.00 48 1015.1
20260510160557 13 285 0.0 0.0 0.00 0.00 0.00 47 1015.0
20260510160057 13 251 0.0 0.0 0.00 0.00 0.00 45 1015.0
20260510155559 13 272 0.0 0.0 0.00 0.00 0.00 44 1014.8
20260510155055 13 297 0.0 0.0 0.00 0.00 0.00 42 1014.7
20260510154554 13 259 0.0 0.0 0.00 0.00 0.00 44 1014.6
20260510154154 13 288 0.0 0.0 0.00 0.00 0.00 43 1014.7
20260510153553 13 273 0.0 0.0 0.00 0.00 0.00 42 1014.6
20260510153053 13 250 0.0 0.0 0.00 0.00 0.00 42 1014.7
20260510152556 12 250 0.0 0.0 0.00 0.00 0.00 45 1014.6
20260510152052 12 251 0.0 0.0 0.00 0.00 0.00 45 1014.6
20260510151553 12 271 0.0 0.0 0.00 0.00 0.00 44 1014.6
20260510151052 12 284 0.0 0.0 0.00 0.00 0.00 46 1014.6
20260510150552 12 272 0.0 0.0 0.00 0.00 0.00 47 1014.5
20260510150053 12 252 0.0 0.0 0.00 0.00 0.00 48 1014.7
20260510145550 12 251 0.0 0.0 0.00 0.00 0.00 48 1014.9
20260510145049 12 255 0.0 0.0 0.00 0.00 0.00 50 1014.7
20260510144551 12 225 0.0 0.0 0.00 0.00 0.00 50 1014.5
20260510144049 12 268 0.0 0.0 0.00 0.00 0.00 52 1014.3
20260510143548 12 223 0.0 0.0 0.00 0.00 0.00 50 1014.5
20260510143047 12 223 0.0 0.0 0.00 0.00 0.00 54 1014.4
20260510142549 12 223 0.0 0.0 0.00 0.00 0.00 54 1014.4
20260510142050 12 245 0.0 0.0 0.00 0.00 0.00 54 1014.2
20260510141556 12 245 0.0 0.0 0.00 0.00 0.00 54 1014.3
20260510141047 12 245 0.0 0.0 0.00 0.00 0.00 52 1014.3
20260510140547 11 245 0.0 0.0 0.00 0.00 0.00 56 1014.1
20260510140050 11 244 0.0 0.0 0.00 0.00 0.00 56 1014.2
20260510135546 11 244 0.0 0.0 0.00 0.00 0.00 56 1014.2
20260510135046 11 244 0.0 0.0 0.00 0.00 0.00 56 1014.4
20260510134551 11 244 0.0 0.0 0.00 0.00 0.00 55 1014.4
20260510134047 11 232 0.0 0.0 0.00 0.00 0.00 57 1014.4
20260510133545 11 223 0.0 0.0 0.00 0.00 0.00 57 1014.4
20260510133100 11 223 0.0 0.0 0.00 0.00 0.00 59 1014.4
20260510132544 11 223 0.0 0.0 0.00 0.00 0.00 60 1014.2
20260510132044 11 223 0.0 0.0 0.00 0.00 0.00 60 1014.3
20260510131550 11 217 0.0 0.0 0.00 0.00 0.00 61 1014.3
20260510131043 11 221 0.0 0.0 0.00 0.00 0.00 62 1014.3
20260510130543 11 221 0.0 0.0 0.00 0.00 0.00 64 1014.3
20260510130043 11 221 0.0 0.0 0.00 0.00 0.00 64 1014.3
20260510125542 11 221 0.0 0.0 0.00 0.00 0.00 65 1014.3
20260510125042 11 221 0.0 0.0 0.00 0.00 0.00 65 1014.2
20260510124543 11 261 0.0 0.0 0.00 0.00 0.00 66 1014.3
20260510124042 11 261 0.0 0.0 0.00 0.00 0.00 66 1014.3
20260510123542 11 264 0.0 0.0 0.00 0.00 0.00 66 1014.3
20260510123056 11 284 0.0 0.0 0.00 0.00 0.00 67 1014.4
20260510122541 11 284 0.0 0.0 0.00 0.00 0.00 66 1014.6
20260510122041 11 215 0.0 0.0 0.00 0.00 0.00 67 1014.5
20260510121541 11 214 0.0 0.0 0.00 0.00 0.00 67 1014.4
20260510121041 11 214 0.0 0.0 0.00 0.00 0.00 67 1014.3
20260510120540 10 214 0.0 0.0 0.00 0.00 0.00 67 1014.3
20260510120040 10 226 0.0 0.0 0.00 0.00 0.00 67 1014.3
20260510115540 10 226 0.0 0.0 0.00 0.00 0.00 67 1014.2
20260510115040 10 227 0.0 0.0 0.00 0.00 0.00 67 1014.3
20260510114540 10 218 0.0 0.0 0.00 0.00 0.00 67 1014.3
20260510114039 10 213 0.0 0.0 0.00 0.00 0.00 68 1014.3
20260510113539 10 171 0.0 0.0 0.00 0.00 0.00 68 1014.3
20260510113043 10 190 0.0 0.0 0.00 0.00 0.00 68 1014.2
20260510112538 10 189 0.0 0.0 0.00 0.00 0.00 68 1014.1
20260510112038 10 189 0.0 0.0 0.00 0.00 0.00 68 1014.0
20260510111537 10 189 0.0 0.0 0.00 0.00 0.00 68 1014.1
20260510111037 11 189 0.0 0.0 0.00 0.00 0.00 68 1013.9
20260510110535 11 189 0.0 0.0 0.00 0.00 0.00 68 1013.9
20260510110035 11 189 0.0 0.0 0.00 0.00 0.00 68 1013.9
20260510105534 11 189 0.0 0.0 0.00 0.00 0.00 68 1013.9
20260510105034 11 189 0.0 0.0 0.00 0.00 0.00 68 1014.1
20260510104533 11 189 0.0 0.0 0.00 0.00 0.00 68 1014.2
20260510104033 11 189 0.0 0.0 0.00 0.00 0.00 68 1014.2
20260510103533 11 190 0.0 0.0 0.00 0.00 0.00 68 1014.1
20260510103034 11 207 0.0 0.0 0.00 0.00 0.00 68 1014.2
20260510102533 11 207 0.0 0.0 0.00 0.00 0.00 68 1014.1
20260510102032 11 207 0.0 0.0 0.00 0.00 0.00 68 1014.2
20260510101532 11 207 0.0 0.0 0.00 0.00 0.00 68 1014.1
20260510101031 11 207 0.0 0.0 0.00 0.00 0.00 67 1014.0
20260510100531 11 202 0.0 0.0 0.00 0.00 0.00 67 1014.1
20260510100030 11 167 0.0 0.0 0.00 0.00 0.00 67 1014.0
20260510095529 12 167 0.0 0.0 0.00 0.00 0.00 66 1014.0
20260510095027 12 167 0.0 0.0 0.00 0.00 0.00 66 1014.0
20260510094526 12 167 0.0 0.0 0.00 0.00 0.00 65 1014.0
20260510094026 12 167 0.0 0.0 0.00 0.00 0.00 65 1013.9
20260510093524 12 167 0.0 0.0 0.00 0.00 0.00 64 1013.9
20260510093026 13 167 0.0 0.0 0.00 0.00 0.00 64 1014.0
20260510092526 13 167 0.0 0.0 0.00 0.00 0.00 63 1013.9
20260510092027 13 167 0.0 0.0 0.00 0.00 0.00 63 1014.0
20260510091524 13 167 0.0 0.0 0.00 0.00 0.00 62 1014.1
20260510091027 13 167 0.0 0.0 0.00 0.00 0.00 62 1014.1
20260510090523 12 167 0.0 0.0 0.00 0.00 0.00 62 1014.1
20260510090022 12 94 0.0 0.0 0.00 0.00 0.00 62 1014.1
20260510085521 12 94 0.0 0.0 0.00 0.00 0.00 63 1014.1
20260510085022 12 94 0.0 0.0 0.00 0.00 0.00 63 1014.1
20260510084520 12 94 0.0 0.0 0.00 0.00 0.00 63 1014.2
20260510084021 12 94 0.0 0.0 0.00 0.00 0.00 64 1014.2
20260510083522 12 94 0.0 0.0 0.00 0.00 0.00 64 1014.2
20260510083019 12 94 0.0 0.0 0.00 0.00 0.00 65 1014.3
20260510082519 12 91 0.0 0.0 0.00 0.00 0.00 63 1014.3
20260510082019 12 91 0.0 0.0 0.00 0.00 0.00 64 1014.3
20260510081519 12 91 0.0 0.0 0.00 0.00 0.00 63 1014.4
20260510081020 12 91 0.0 0.0 0.00 0.00 0.00 63 1014.4
20260510080517 12 91 0.0 0.0 0.00 0.00 0.00 64 1014.4
20260510080018 12 91 0.0 0.0 0.00 0.00 0.00 65 1014.4
20260510075517 12 91 0.0 0.0 0.00 0.00 0.00 65 1014.4
20260510075019 12 91 0.0 0.0 0.00 0.00 0.00 65 1014.4
20260510074520 12 91 0.0 0.0 0.00 0.00 0.00 65 1014.5
20260510074019 12 91 0.0 0.0 0.00 0.00 0.00 65 1014.4
20260510073516 12 91 0.0 0.0 0.00 0.00 0.00 64 1014.4
20260510073016 12 91 0.0 0.0 0.00 0.00 0.00 63 1014.5
20260510072516 12 91 0.0 0.0 0.00 0.00 0.00 63 1014.4
20260510072016 12 91 0.0 0.0 0.00 0.00 0.00 63 1014.5
20260510071515 12 91 0.0 0.0 0.00 0.00 0.00 62 1014.4
20260510071014 12 91 0.0 0.0 0.00 0.00 0.00 62 1014.5
20260510070514 12 91 0.0 0.0 0.00 0.00 0.00 61 1014.5
20260510070013 12 91 0.0 0.0 0.00 0.00 0.00 62 1014.4
20260510065512 12 91 0.0 0.0 0.00 0.00 0.00 61 1014.5
20260510065012 12 91 0.0 0.0 0.00 0.00 0.00 62 1014.3
20260510064511 12 91 0.0 0.0 0.00 0.00 0.00 61 1014.3
20260510064011 13 91 0.0 0.0 0.00 0.00 0.00 61 1014.4
20260510063511 13 91 0.0 0.0 0.00 0.00 0.00 61 1014.4
20260510063011 13 91 0.0 0.0 0.00 0.00 0.00 60 1014.3
20260510062511 13 91 0.0 0.0 0.00 0.00 0.00 60 1014.2
20260510062010 13 91 0.0 0.0 0.00 0.00 0.00 59 1014.2
20260510061511 13 91 0.0 0.0 0.00 0.00 0.00 58 1014.2
20260510061010 13 91 0.0 0.0 0.00 0.00 0.00 58 1014.0
20260510060510 14 91 0.0 0.0 0.00 0.00 0.00 57 1014.2
20260510060018 14 91 0.0 0.0 0.00 0.00 0.00 56 1014.0
20260510055509 14 90 0.0 0.0 0.00 0.00 0.00 55 1014.1
20260510055009 14 90 0.0 0.0 0.00 0.00 0.00 55 1014.0
20260510054511 15 90 0.0 0.0 0.00 0.00 0.00 55 1013.9
20260510054010 15 90 0.0 0.0 0.00 0.00 0.00 54 1013.9
20260510053511 15 90 0.0 0.0 0.00 0.00 0.00 53 1013.9
20260510053013 15 90 0.0 0.0 0.00 0.00 0.00 52 1013.8
20260510052508 15 90 0.0 0.0 0.00 0.00 0.00 52 1013.9
20260510052008 16 90 0.0 0.0 0.00 0.00 0.00 50 1013.8
20260510051508 16 90 0.0 0.0 0.00 0.00 0.00 49 1013.7
20260510051009 16 90 0.0 0.0 0.00 0.00 0.00 49 1013.9
20260510050509 16 90 0.0 0.0 0.00 0.00 0.00 48 1013.9
20260510050011 17 90 0.0 0.0 0.00 0.00 0.00 47 1013.9
20260510045509 17 90 0.0 0.0 0.00 0.00 0.00 46 1013.8
20260510045008 17 90 0.0 0.0 0.00 0.00 0.00 45 1013.8
20260510044508 18 90 0.0 0.0 0.00 0.00 0.00 44 1013.7
20260510044007 18 90 0.0 0.0 0.00 0.00 0.00 42 1013.7
20260510043507 18 90 0.0 0.0 0.00 0.00 0.00 40 1013.7
20260510043007 19 90 0.0 0.0 0.00 0.00 0.00 40 1013.7
20260510042508 20 90 0.0 0.0 0.00 0.00 0.00 38 1013.7
20260510042006 20 90 0.0 0.0 0.00 0.00 0.00 38 1013.7
20260510041506 20 90 0.0 0.0 0.00 0.00 0.00 35 1013.6
20260510041006 20 91 0.0 0.0 0.00 0.00 0.00 34 1013.6
20260510040506 20 112 0.0 0.0 0.00 0.00 0.00 34 1013.5
20260510040006 21 128 0.0 0.0 0.00 0.00 0.00 33 1013.5
20260510035505 21 128 0.0 0.0 0.00 0.00 0.00 32 1013.4
20260510035006 21 128 0.0 0.0 0.00 0.00 0.00 31 1013.3
20260510034505 21 128 0.0 0.0 0.00 0.00 0.00 33 1013.3
20260510034005 21 128 0.0 0.0 0.00 0.00 0.00 30 1013.2
20260510033504 21 128 0.0 0.0 0.00 0.00 0.00 30 1013.3
20260510033005 21 128 0.0 0.0 0.00 0.00 0.00 29 1013.3
20260510032504 21 117 0.0 0.0 0.00 0.00 0.00 29 1013.2
20260510032005 21 140 0.0 0.0 0.00 0.00 0.00 29 1013.3
20260510031511 21 140 0.0 0.0 0.00 0.00 0.00 30 1013.3
20260510031004 21 140 0.0 0.0 0.00 0.00 0.00 29 1013.3
20260510030507 21 140 0.0 0.0 0.00 0.00 0.00 28 1013.2
20260510030009 21 145 0.0 0.0 0.00 0.00 0.00 29 1013.3
20260510025505 21 111 0.0 0.0 0.00 0.00 0.00 31 1013.2
20260510025004 21 88 0.0 0.0 0.00 0.00 0.00 33 1013.1
20260510024503 21 78 0.0 0.0 0.00 0.00 0.00 33 1013.1
20260510024004 22 47 0.0 0.0 0.00 0.00 0.00 35 1013.1
20260510023502 22 47 0.0 0.0 0.00 0.00 0.00 34 1013.0
20260510023002 22 47 0.0 0.0 0.00 0.00 0.00 37 1013.1
20260510022503 22 47 0.0 0.0 0.00 0.00 0.00 35 1013.1
20260510022002 22 47 0.0 0.0 0.00 0.00 0.00 36 1013.1
20260510021501 22 47 0.0 0.0 0.00 0.00 0.00 41 1013.1
20260510021001 23 47 0.0 0.0 0.00 0.00 0.00 37 1013.2
20260510020602 23 46 0.0 0.0 0.00 0.00 0.00 37 1013.3
20260510020100 23 47 0.0 0.0 0.00 0.00 0.00 35 1013.2
20260510015559 24 47 0.0 0.0 0.00 0.00 0.00 32 1013.3
20260510015102 24 47 0.0 0.0 0.00 0.00 0.00 31 1013.3
20260510014618 25 46 0.0 0.0 0.00 0.00 0.00 32 1013.5
20260510014058 25 46 0.0 0.0 0.00 0.00 0.00 33 1013.4
20260510013600 25 46 0.0 0.0 0.00 0.00 0.00 31 1013.4
20260510013057 25 46 0.0 0.0 0.00 0.00 0.00 30 1013.5
20260510012556 26 46 0.0 0.0 0.00 0.00 0.00 33 1013.5
20260510012056 26 46 0.0 0.0 0.00 0.00 0.00 31 1013.6
20260510011556 27 46 0.0 0.0 0.00 0.00 0.00 30 1013.6
20260510011055 27 46 0.0 0.0 0.00 0.00 0.00 29 1013.7
20260510010555 27 46 0.0 0.0 0.00 0.00 0.00 31 1013.7
20260510010055 27 46 0.0 0.0 0.00 0.00 0.00 30 1013.7
20260510005554 27 46 0.0 0.0 0.00 0.00 0.00 25 1013.9
20260510005056 27 46 0.0 0.0 0.00 0.00 0.00 27 1014.0
20260510004553 27 39 0.0 0.0 0.00 0.00 0.00 25 1013.8
20260510004057 27 39 0.0 0.0 0.00 0.00 0.00 28 1013.8
20260510003554 27 39 0.0 0.0 0.00 0.00 0.00 29 1013.9
20260510003057 27 38 0.0 0.0 0.00 0.00 0.00 29 1014.0
20260510002554 27 38 0.0 0.0 0.00 0.00 0.00 29 1014.0
20260510002053 27 38 0.0 0.0 0.00 0.00 0.00 29 1013.9
20260510001554 27 40 0.0 0.0 0.00 0.00 0.00 28 1013.8
20260510001052 27 37 0.0 0.0 0.00 0.00 0.00 28 1013.9
20260510000552 28 36 0.0 0.0 0.00 0.00 0.00 26 1014.1
20260510000052 28 38 0.0 0.0 0.00 0.00 0.00 26 1014.2
20260509235550 28 37 0.0 0.0 0.00 0.00 0.00 25 1014.4
20260509235049 28 38 0.0 0.0 0.00 0.00 0.00 23 1014.4
20260509234548 28 20 0.0 0.0 0.00 0.00 0.00 25 1014.5
20260509234047 28 20 0.0 0.0 0.00 0.00 0.00 26 1014.8
20260509233551 28 360 0.0 0.0 0.00 0.00 0.00 24 1014.7
20260509233051 28 5 0.0 0.0 0.00 0.00 0.00 24 1014.7